Regional Weather Roundup
Issued by NWS

Home | Current Version | Previous Version | Text Only | Print | Product List | Glossary On
Versions: 1 2 3 4 5 6 7 8 9 10 11 12 13 14 15 16 17 18 19 20 21 22 23 24 25 26 27 28 29 30 31 32 33 34 35 36 37 38 39 40 41 42 43 44 45 46 47 48 49 50
000
ASUS44 KJAN 190510
RWRMS

MISSISSIPPI HOURLY WEATHER ROUNDUP
NATIONAL WEATHER SERVICE JACKSON MS
1200 AM CDT SAT APR 19 2014

NOTE: "FAIR: INDICATES FEW OR NO CLOUDS BELOW 12,000 FEET WITH NO
SIGNIFICANT WEATHER AND/OR OBSTRUCTIONS TO VISIBILITY.

MSZ001>002-007>008-010>013-018>021-025>028-034>036-190600-
NORTHWEST MISSISSIPPI

CITY           SKY/WX    TMP DP  RH WIND       PRES   REMARKS
CLARKSDALE       N/A     59  57  94 CALM      30.20S
CLEVELAND      FAIR      58  55  88 CALM      30.19R
GREENWOOD      CLEAR     53  52  96 CALM      30.19R
GREENVILLE     CLEAR     58  52  80 E3        30.18R
GRENADA        FAIR      52  50  93 CALM      30.18S
OLIVE BRANCH   PTCLDY    57  55  94 CALM      30.19S
OXFORD         FAIR      54  50  87 CALM      30.20S
TUNICA         CLEAR     59  52  77 CALM      30.20S
$$

MSZ003>006-009-014>017-022>024-029>033-037>039-190600-
NORTHEAST MISSISSIPPI

CITY           SKY/WX    TMP DP  RH WIND       PRES   REMARKS
BELMONT        FAIR      51  50  98 CALM      30.17S
COLUMBUS AFB   MOCLDY    53  53 100 W2        30.16S
CORINTH        FAIR      54  50  87 CALM      30.18F
GOLDN TRIANGLE MOCLDY    54  48  82 CALM      30.19S
STARKVILLE     FAIR      50  50 100 CALM      30.17S
TUPELO         PTCLDY    53  51  93 CALM      30.17S
$$

MSZ040-058-190600-
CENTRAL MISSISSIPPI

CITY           SKY/WX    TMP DP  RH WIND       PRES   REMARKS
JACKSON INTL   CLEAR     55  53  93 E5        30.19R
JACKSON HAWKNS CLEAR     59  53  80 CALM      30.19R
MERIDIAN KEY   CLOUDY    54  52  93 N3        30.16S
MERIDIAN NAS   CLOUDY    56  51  84 NE5       30.17R
RAYMOND        FAIR      55  50  82 CALM      30.19R
VICKSBURG      CLEAR     61  54  77 E3        30.19R
$$

MSZ059>079-190600-
SOUTH MISSISSIPPI

CITY           SKY/WX    TMP DP  RH WIND       PRES   REMARKS
BROOKHAVEN     FAIR      55  54  94 CALM      30.20R
COLUMBIA       FAIR      55  54  94 MISG      30.17R
HATTIESBURG    PTCLDY    56  53  90 NW5       30.17R
MCCOMB         CLEAR     55  52  89 CALM      30.19R
NATCHEZ        PTCLDY    57  54  88 CALM      30.18R
PINE BELT      PTCLDY    55  50  82 N3        30.17R
$$

MSZ080>082-190600-
COASTAL MISSISSIPPI

CITY           SKY/WX    TMP DP  RH WIND       PRES   REMARKS
BILOXI         CLOUDY    59  54  81 N9        30.13R
PASCAGOULA     CLOUDY    59  54  83 NW5       30.11R
GULFPORT       CLOUDY    61  52  72 NW8       30.13R
$$



USA.gov is the U.S. government's official web portal to all federal, state and local government web resources and services.